Regional Weather Roundup
Issued by NWS

Home | Current Version | Previous Version | Text Only | Print | Product List | Glossary Off
Versions: 1 2 3 4 5 6 7 8 9 10 11 12 13 14 15 16 17 18 19 20 21 22 23 24 25 26 27 28 29 30 31 32 33 34 35 36 37 38 39 40 41 42 43 44 45 46 47 48 49 50

000
ASUS43 KMPX 301801
RWRMN
WEATHER ROUNDUP FOR MINNESOTA
NATIONAL WEATHER SERVICE TWIN CITIES/CHANHASSEN MN
100 PM CDT TUE AUG 30 2016


NOTE: "FAIR" INDICATES FEW OR NO CLOUDS BELOW 12,000 FEET WITH NO
SIGNIFICANT WEATHER AND/OR OBSTRUCTIONS TO VISIBILITY. N/A MEANS
CURRENT SKY AND/OR WEATHER CONDITIONS ARE NOT AVAILABLE.

MNZ060>063-068>070-301900-
   Twin Cities Metro

CITY           SKY/WX    TMP DP  RH WIND       PRES   REMARKS
TWIN CITIES    CLOUDY    76  61  59 N8        30.19F
6HR MIN TEMP:  67; 6HR MAX TEMP:  76;

ST PAUL        CLOUDY    75  62  64 N5        30.19F
CRYSTAL        CLOUDY    75  56  51 NE6       30.18F
BLAINE         PTSUNNY   75  59  57 N6        30.19F
LAKEVILLE      CLOUDY    73  63  68 N3        30.19F
EDEN PRAIRIE   CLOUDY    77  61  57 N8        30.19S
6HR MIN TEMP:  68; 6HR MAX TEMP:  77;

LAKEVILLE      CLOUDY    73  63  68 N3        30.19F
SOUTH ST PAUL  CLOUDY    75  60  58 N6        30.18F
LAKE ELMO      PTSUNNY   72  64  78 N5        30.20S
$$
MNZ001>005-007-008-013>017-022>024-027-028-301900-
   Northwest Minnesota

CITY           SKY/WX    TMP DP  RH WIND       PRES   REMARKS
BEMIDJI        SUNNY     71  51  49 NW7       30.24S
HALLOCK        SUNNY     73  46  38 NW5       30.23F
ROSEAU         SUNNY     72  54  53 W10       30.23F
WARROAD        SUNNY     70  54  56 W9        30.23F
THIEF RVR FALL SUNNY     71  50  47 NW8       30.25F
CROOKSTON      SUNNY     73  50  43 NW7       30.25F
FOSSTON        SUNNY     72  52  49 NW5       30.26S
DETROIT LAKES  SUNNY     72  52  49 N6        30.27S
MOORHEAD       SUNNY     73  48  40 N7        30.24F
MAHNOMEN       FAIR      71  53  51 NW9       30.25F
$$
MNZ006-009>011-018-025>026-301900-
   North Central Minnesota

CITY           SKY/WX    TMP DP  RH WIND       PRES   REMARKS
BAUDETTE       SUNNY     70  49  47 NW10      30.22F
FLAG ISLAND    SUNNY     68  46  45 NW5       30.21S
INTL FALLS     SUNNY     71  50  47 W8        30.20S
6HR MIN TEMP:  48; 6HR MAX TEMP:  71;

WASKISH        SUNNY     72  52  49 W8        30.23S
BIG FORK       SUNNY     72  48  43 NW7       30.22S
LONGVILLE      SUNNY     72  55  56 W8        30.23S
GRAND RAPIDS   SUNNY     70  50  49 N10       30.23F
CRANE LAKE     SUNNY     66  46  48 N6        30.21
ORR            SUNNY     70  46  43 NW5       30.18S
COOK           SUNNY     68  48  49 N6        30.20F
WALKER         FAIR      71  51  50 NW8G16    30.23F
$$
MNZ012-019>021-037-301900-
   Northeast Minnesota

CITY           SKY/WX    TMP DP  RH WIND       PRES   REMARKS
DULUTH         SUNNY     73  53  49 VRB5      30.18F
6HR MIN TEMP:  62; 6HR MAX TEMP:  73;

ELY            SUNNY     68  48  49 NW6       30.18F
HIBBING        SUNNY     68  49  50 MISG      30.20F
EVELETH        SUNNY     70  50  48 N7        30.21S
DULUTH HARBOR  SUNNY     72  61  68 E3        30.17F
TWO HARBORS    SUNNY     75  63  64 N9        30.14F
SILVER BAY     SUNNY     72  57  60 SE10      30.14F
GRAND MARAIS     N/A     67  51  56 SW12      30.13S
G MARAIS ARPRT SUNNY     68  46  45 NW5       30.17F
$$
MNZ029>031-032-039>041-046>048-054>057-064-301900-
   West Central Minnesota

CITY           SKY/WX    TMP DP  RH WIND       PRES   REMARKS
FERGUS FALLS   SUNNY     73  54  49 N6        30.24F
WHEATON        SUNNY     79  55  44 N3        30.24F
MORRIS         SUNNY     79  48  34 NE5       30.22S
ALEXANDRIA     SUNNY     75  49  39 N6        30.25S
ELBOW LAKE     FAIR      74  55  51 N7        30.24F
WADENA         SUNNY     73  52  46 NW5       30.23F
GLENWOOD       SUNNY     72  54  53 NE5       30.24F
APPLETON       MOSUNNY   77  54  44 CALM      30.22F
BENSON         SUNNY     77  52  41 E3        30.22F
ORTONVILLE     SUNNY     75  57  53 CALM      30.23F
MADISON        MOSUNNY   75  61  60 NE6       30.23F
WILLMAR        FAIR      75  55  50 N7        30.24S
$$
MNZ033>034-036-042>043-049>051-058-059-301900-
   Central Minnesota

CITY           SKY/WX    TMP DP  RH WIND       PRES   REMARKS
ST CLOUD       MOSUNNY   74  52  46 N7        30.21F
6HR MIN TEMP:  63; 6HR MAX TEMP:  74;

SAUK CENTRE    FAIR      72  50  45 NW6       30.23F
PAYNESVILLE    MOSUNNY   75  49  41 NE5       30.23F
AITKIN         SUNNY     75  46  35 NW3       30.20F
PINE RIVER     SUNNY     72  52  49 N9        30.25S
BRAINERD       SUNNY     73  52  47 N10       30.22F
STAPLES        SUNNY     73  48  40 NW6       30.23S
LONG PRAIRIE   FAIR      72  50  46 N3        30.24S
LITTLE FALLS   SUNNY     72  43  35 NW5       30.22F
LITCHFIELD     CLOUDY    73  59  60 NE5       30.23S
BUFFALO        PTSUNNY   74  58  56 N6        30.22F
MAPLE LAKE     PTSUNNY   73  60  62 N7        30.23S
HUTCHINSON     SUNNY     74  58  55 N5        30.23F
$$
MNZ037-044-045-052-053-301900-
   East Central Minnesota

CITY           SKY/WX    TMP DP  RH WIND       PRES   REMARKS
PRINCETON      MOSUNNY   75  52  43 NW7       30.21S
MORA           MOSUNNY   72  50  46 NW3       30.22S
CAMBRIDGE      PTSUNNY   75  57  53 NW6       30.19S
RUSH CITY      PTSUNNY   73  54  50 N5        30.20S
MOOSE LAKE     SUNNY     72  54  53 N3        30.18F
HINCKLEY       FAIR      73  55  53 N3        30.19F
CLOQUET        SUNNY     72  52  49 NW8       30.19F
MCGREGOR       SUNNY     72  52  49 NW7       30.21F
$$
MNZ071>073-080-081-089-090-097-098-301900-
   Southwest Minnesota

CITY           SKY/WX    TMP DP  RH WIND       PRES   REMARKS
MONTEVIDEO     MOSUNNY   75  61  60 E7        30.25S
GRANITE FALLS  SUNNY     77  62  60 NE5       30.24F
CANBY          MOSUNNY   76  61  58 NE7       30.25F
MARSHALL       MOSUNNY   73  65  75 E7        30.24F
REDWOOD FALLS  PTSUNNY   76  61  59 VRB5      30.22F
OLIVIA         MOSUNNY   73  59  60 NE6       30.22F
WINDOM         CLOUDY    73  64  73 N7        30.23F
WORTHINGTON    CLOUDY    72  66  81 N6        30.24F
JACKSON        CLOUDY    72  63  73 VRB6      30.24F
TRACY          PTSUNNY   73  66  80 N6        30.25F
SLAYTON        CLOUDY    70  66  88 NE5       30.26F
$$
MNZ065>067-074>077-082>085-091>093-301900-
   South Central Minnesota

CITY           SKY/WX    TMP DP  RH WIND       PRES   REMARKS
NEW ULM        CLOUDY    73  61  64 E6        30.22S
ST JAMES       CLOUDY    72  66  83 CALM      30.24S
FAIRMONT       CLOUDY    74  66  76 N7        30.23F
GLENCOE        MOSUNNY   75  64  69 NE3       30.21S
FARIBAULT      CLOUDY    75  64  69 N6        30.20F
OWATONNA       CLOUDY    77  64  65 N5        30.20S
WASECA         CLOUDY    77  68  73 N3        30.22S
ALBERT LEA     CLOUDY    75  66  73 NW3       30.21S
$$
MNZ078>079-086>088-094>096-301900-
   Southeast Minnesota

CITY           SKY/WX    TMP DP  RH WIND       PRES   REMARKS
ROCHESTER      MOSUNNY   79  66  64 NW7       30.19F
6HR MIN TEMP:  65; 6HR MAX TEMP:  79;

RED WING       CLOUDY    77  66  69 W5        30.16S
STANTON        PTSUNNY   75  64  69 CALM      30.18S
DODGE CENTER   CLOUDY    75  64  69 N6        30.20F
WINONA         CLOUDY    79  64  61 NW5       30.16F
AUSTIN         CLOUDY    77  66  69 N7        30.19F
PRESTON        MOSUNNY   76  62  60 CALM      30.19F
$$
ABBREVIATIONS USED IN REMARKS
   TC - TEMPERATURES IN CELSIUS
  WCI - WIND CHILL INDEX
   HX - HEAT INDEX
  VSB - VISIBILITY
$$




USA.gov is the U.S. government's official web portal to all federal, state and local government web resources and services.